User: anonymous   Login
Location: Fort Wayne
(41.1310°N, 85.1290°W)
Time: 22:37:51
(UTC-04:00)
Language:

COSMOS 2428 - Orbit

View from above orbital plane
View from above orbital plane
View from above satellite
View from above satellite

Ground track
Ground track

The orbit data is extracted from the following two-line orbital elements,

1 31792U 07029A   15209.74936810  .00000137  00000-0  10000-3 0  9990
2 31792 070.9788 058.1516 0009916 240.5166 216.8453 14.12529980416728
Epoch (UTC): 28 July 2015 17:59:05
Eccentricity: 0.0009916
inclination: 70.9788°
perigee height: 843 km
apogee height: 858 km
right ascension of ascending node: 58.1516°
argument of perigee: 240.5166°
revolutions per day: 14.12529980
mean anomaly at epoch: 216.8453°
orbit number at epoch: 41672

The dashed part of the orbit path shows where the satellite is in the earth's shadow,  

DLR